User: anonymous   Login
Location: Fort Frances
(48.6170°N, 93.4170°W)
Time: 05:34:41
(UTC-06:00)
Language:

CZ-2C R/B - Orbit

View from above orbital plane
View from above orbital plane
View from above satellite
View from above satellite

Ground track
Ground track

The orbit data is extracted from the following two-line orbital elements,

1 36089U 09061B   15030.73909606  .00000280  00000-0  81538-4 0  5446
2 36089 098.0834 059.5678 0082356 198.5351 292.5327 14.49349212275896
Epoch (UTC): 30 January 2015 17:44:17
Eccentricity: 0.0082356
inclination: 98.0834°
perigee height: 669 km
apogee height: 786 km
right ascension of ascending node: 59.5678°
argument of perigee: 198.5351°
revolutions per day: 14.49349212
mean anomaly at epoch: 292.5327°
orbit number at epoch: 27589

The dashed part of the orbit path shows where the satellite is in the earth's shadow,  

DLR